Weather observations for the past three days for
Shelton, Shelton Sanderson Field
Imperial (Metric)
Date Time (pdt) Wind (mph) Vis. (mi.) Weather Sky Cond. Temperature (ºF) Relative Humidity Wind Chill (°F) Heat Index (°F) Pressure Precipitation (in)
Air Dwpt 6 hour altimeter (in) sea level (mb) 1 hr 3 hr 6 hr
Max. Min.
12 15:53 SW 7 10.00 Fair CLR 80.1 57 45% 80 30.01 1016.2
12 14:53 SW 8 10.00 Fair CLR 79 55.9 45% 80 30.03 1016.9
12 13:53 SW 6 10.00 Fair CLR 77 73.9 90% 78 30.05 1017.3
12 12:53 SW 7 10.00 Fair CLR 73.9 55 52% 30.06 1017.9
12 11:53 SW 7 10.00 Fair CLR 70 55 59% 30.08 1018.7
12 10:53 SW 6 10.00 Fair CLR 64.9 54 64.9 53.1 68% 30.1 1019.1
12 09:53 Vrbl 7 10.00 Fair CLR 61 54 78% 30.1 1019.4
12 08:53 SW 9 10.00 Overcast OVC005 55.9 52 87% 30.11 1019.7
12 07:53 W 8 9.00 Overcast OVC003 54 52 93% 30.11 1019.8
12 06:53 W 6 8.00 Overcast OVC003 53.1 51.1 93% 30.11 1019.4
12 05:53 W 9 8.00 Overcast OVC004 53.1 51.1 93% 30.1 1019.3
12 04:53 W 9 10.00 Overcast OVC004 53.1 51.1 59 53.1 93% 30.09 1018.9
12 03:53 W 10 10.00 Overcast OVC005 53.1 51.1 93% 30.09 1018.7
12 02:53 W 7 10.00 Overcast OVC006 53.1 51.1 93% 30.08 1018.6
12 01:53 W 7 10.00 Fair CLR 53.1 51.1 93% 30.08 1018.5
12 00:53 W 9 10.00 Fair CLR 55 51.1 87% 30.08 1018.5
11 23:53 W 8 10.00 Fair CLR 55.9 51.1 84% 30.08 1018.6
11 22:53 W 9 10.00 Fair CLR 59 52 81 59 78% 30.08 1018.6
11 21:53 W 13 10.00 Fair CLR 61 52 72% 30.08 1018.4
11 20:53 W 12 10.00 Fair CLR 66 53.1 63% 30.06 1018.0
11 19:53 SW 14 G 21 10.00 Fair CLR 71.1 52 51% 30.06 1017.8
11 18:53 W 15 10.00 Fair CLR 75.9 53.1 45% 78 30.05 1017.6
11 17:53 SW 13 10.00 Fair CLR 78.1 55.9 47% 79 30.05 1017.5
11 16:53 SW 10 10.00 Fair CLR 81 57 82 66 44% 81 30.06 1017.8
11 15:53 SW 14 G 21 10.00 Fair CLR 81 57 44% 81 30.07 1018.2
11 14:53 SW 14 G 20 10.00 Fair CLR 80.1 57 45% 80 30.09 1018.7
11 13:53 SW 10 10.00 Fair CLR 77 55 47% 78 30.11 1019.3
11 12:53 SW 10 10.00 Fair CLR 73.9 55.9 54% 30.13 1020.0
11 11:53 SW 7 10.00 Fair CLR 71.1 55 57% 30.14 1020.3
11 10:53 W 7 10.00 Fair CLR 66 54 66.9 53.1 65% 30.14 1020.7
11 09:53 SW 9 10.00 Fair CLR 63 54 73% 30.15 1020.8
11 08:53 SW 9 10.00 Fair CLR 59 53.1 81% 30.15 1020.9
11 07:53 SW 9 10.00 Fair CLR 57 52 83% 30.13 1020.2
11 06:53 W 8 10.00 Fair CLR 54 52 93% 30.13 1020.0
11 05:53 W 7 10.00 Fair CLR 53.1 51.1 93% 30.12 1019.7
11 04:53 W 5 10.00 Fair CLR 53.1 51.1 62.1 53.1 93% 30.11 1019.3
11 03:53 NW 3 10.00 Fair CLR 54 52 93% 30.1 1019.1
11 02:53 W 3 10.00 Fair CLR 54 51.1 90% 30.09 1018.9
11 01:53 W 3 10.00 Fair CLR 55.9 52 87% 30.08 1018.6
11 00:53 W 7 10.00 Fair CLR 57 52 83% 30.08 1018.5
10 23:53 W 9 10.00 Fair CLR 59 52 78% 30.07 1018.2
10 22:53 W 8 10.00 Fair CLR 62.1 53.1 82.9 62.1 73% 30.06 1017.7
10 21:53 W 8 10.00 Fair CLR 64 55 73% 30.05 1017.3
10 20:53 W 8 10.00 Fair CLR 68 55.9 65% 30.03 1016.8
10 19:53 SW 10 10.00 Fair CLR 73 57 57% 30.02 1016.6
10 18:53 SW 9 10.00 Fair CLR 77 57 50% 79 30.02 1016.4
10 17:53 SW 14 10.00 Fair CLR 81 55.9 42% 81 30.01 1016.1
10 16:53 SW 13 10.00 Fair CLR 82.9 55 84 69.1 38% 82 30.01 1016.1
10 15:53 SW 12 G 22 10.00 Fair CLR 84 53.1 34% 83 30.02 1016.3
10 14:53 SW 12 G 24 10.00 Fair CLR 82 55 40% 81 30.03 1016.6
10 13:53 SW 12 G 20 10.00 Fair CLR 78.1 55 45% 79 30.03 1016.8
10 12:53 W 12 G 20 10.00 Fair CLR 75.9 54 47% 78 30.03 1016.8
10 11:53 SW 14 10.00 Fair CLR 72 54 53% 30.03 1016.8
10 10:53 SW 10 10.00 Fair CLR 68 54 68 54 61% 30.03 1016.8
10 09:53 SW 15 10.00 Fair CLR 64.9 54 68% 30.03 1016.5
10 08:53 W 12 10.00 Fair CLR 61 53.1 75% 30.02 1016.4
10 07:53 SW 12 10.00 A Few Clouds FEW010 57.9 52 81% 30.01 1015.8
10 06:53 W 9 10.00 Partly Cloudy SCT008 55.9 52 87% 29.99 1015.2
10 05:53 W 10 10.00 Partly Cloudy SCT008 54 51.1 90% 29.97 1014.5
10 04:53 W 12 10.00 A Few Clouds FEW009 54 51.1 72 54 90% 29.96 1014.1
10 03:53 W 9 10.00 Fair CLR 55 52 90% 29.94 1013.4
10 02:53 W 10 10.00 Fair CLR 57 51.1 81% 29.92 1012.7
10 01:53 W 10 10.00 Fair CLR 60.1 51.1 72% 29.9 1012.3
10 00:53 W 9 10.00 Fair CLR 63 51.1 65% 29.89 1011.8
09 23:53 W 8 10.00 Fair CLR 66.9 51.1 57% 29.87 1011.3
09 22:53 W 13 10.00 Fair CLR 72 52 99 72 50% 29.86 1010.9
09 21:53 W 7 10.00 Fair CLR 77 53.1 43% 78 29.84 1010.1
09 20:53 SW 6 10.00 Fair CLR 82 46 28% 80 29.82 1009.4
09 19:53 SW 8 10.00 Fair CLR 89.1 46 23% 86 29.8 1008.8
09 18:53 W 9 10.00 Fair CLR 93.9 48.9 21% 91 29.79 1008.5
09 17:53 W 12 10.00 Fair CLR 97 55.9 25% 95 29.79 1008.6
09 16:53 Vrbl 3 10.00 Fair CLR 99 55.9 99 84.9 24% 98 29.8 1008.8
Date Time (pdt) Wind (mph) Vis. (mi.) Weather Sky Cond. Air Dwpt Max. Min. Relative Humidity Wind Chill (°F) Heat Index (°F) altimeter (in) sea level (mb) 1 hr 3 hr 6 hr
6 hour
Temperature (ºF) Pressure Precipitation (in)